[[{"header":{"parameterUnit":"m.s-1","parameterCategory":1,"la1":30.2991,"la2":30.254,"lo1":-89.0895,"lo2":-89.0444,"dy":0.0017,"dx":0.0017,"nx":28,"ny":28,"refTime":"2024-06-19T09:00:00:Z","depth":0,"parameterNumber":2,"parameterNumberName":"U-component_of_WINDS"},"data":[0,0,0,0,0,0,0,0,0,0,0,0,0,0,0,0,0,0,0,0,0,0,0,0,0,0,0,0,0,0,0,0,0,0,0,0,0,0,0,0,0,0,0,0,0,0,0,0,0,0,0,0,0,0,0,0,0,0,-4.8596,-4.8597,0,-4.8688,-4.8689,-4.869,-4.8592,-4.8588,-4.8584,-4.858,-4.8675,-4.8681,-4.8687,0,0,0,0,0,0,0,0,0,0,0,0,0,-4.8335,-4.834,-4.8596,-4.8597,-4.8598,-4.8688,-4.8689,-4.869,-4.8592,-4.8588,-4.8583,-4.8579,-4.8673,-4.868,-4.8687,0,0,0,0,0,0,0,0,0,0,0,0,0,-4.844,-4.8342,-4.8596,-4.856,-4.8558,-4.8688,-4.8689,-4.8691,-4.8593,-4.8587,-4.8582,-4.8577,-4.8671,-4.8679,-4.8688,-4.8858,0,0,-4.8716,-4.872,0,0,0,0,0,0,0,0,-4.8434,-4.845,-4.8564,-4.8563,-4.856,-4.8622,-4.8632,-4.8747,-4.8595,-4.858,-4.858,-4.8574,-4.8662,-4.8672,-4.8701,-4.8862,-4.8866,-4.8717,-4.8722,-4.8726,-4.8729,0,0,0,0,0,0,0,-4.8427,-4.8445,-4.8632,-4.8566,-4.8564,-4.8539,-4.8548,-4.8653,-4.8652,-4.8581,-4.8574,-4.8586,-4.866,-4.8693,-4.8703,-4.8868,-4.8717,-4.8725,-4.873,-4.8734,-4.9171,-4.9177,0,0,0,0,0,0,-4.8424,-4.844,-4.8629,-4.8635,-4.8482,-4.8549,-4.8558,-4.8608,-4.865,-4.8651,-4.8591,-4.8581,-4.868,-4.8692,-4.8706,-4.8905,-4.8726,-4.8735,-4.874,-4.9165,-4.9173,-4.9179,0,0,0,0,0,0,-4.8418,-4.8441,-4.8625,-4.8535,-4.8557,-4.8559,-4.8616,-4.8613,-4.8645,-4.8658,-4.8657,-4.8624,-4.8676,-4.8693,-4.882,-4.8907,-4.8739,-4.8747,-4.9158,-4.9168,-4.9176,-4.9306,0,0,0,0,0,0,-4.8411,-4.844,-4.8504,-4.8538,-4.8562,-4.8739,-4.8621,-4.8619,-4.8661,-4.865,-4.8689,-4.869,-4.8673,-4.8808,-4.883,-4.8916,-4.8754,-4.915,-4.9162,-4.9173,-4.9294,-4.9319,-4.934,0,0,0,0,0,-4.8402,-4.8538,-4.8508,-4.8532,-4.8643,-4.8744,-4.8758,-4.8735,-4.8669,-4.8733,-4.8741,-4.8689,-4.8895,-4.8821,-4.8845,-4.8936,-4.9145,-4.9159,-4.9172,-4.9284,-4.9314,-4.9339,0,0,0,0,0,0,-4.8514,-4.8541,-4.8509,-4.8659,-4.87,-4.8727,-4.8807,-4.8768,-4.8829,-4.8815,-4.8785,-4.8794,-4.8929,-4.8946,-4.8864,-4.9102,-4.9009,-4.9028,-4.9085,-4.9114,-4.9136,-4.9128,-4.8762,0,0,0,0,0,-4.8557,-4.8637,-4.8656,-4.8787,-4.8809,-4.8806,-4.8849,-4.8828,-4.8869,-4.8886,-4.8903,-4.8945,-4.9019,-4.9068,-4.9137,-4.9297,-4.9303,-4.9372,-4.9395,-4.9413,-4.9429,-4.9514,-4.9544,-4.9225,-4.9225,-4.9225,0,0,-4.8644,-4.8669,-4.8721,-4.881,-4.8839,-4.8922,-4.882,-4.8913,-4.8974,-4.89,-4.902,-4.9035,-4.908,-4.9224,-4.9289,-4.9242,-4.9519,-4.9431,-4.9446,-4.9452,-4.9531,-4.9561,-4.9588,-4.9235,-4.9233,-4.9231,0,0,-4.8846,-4.8874,-4.8984,-4.9016,-4.9062,-4.9059,-4.9086,-4.912,-4.9126,-4.9247,-4.9192,-4.9266,-4.9394,-4.9427,-4.9462,-4.9678,-4.9631,-4.9702,-4.9819,-4.9902,-4.9927,-4.9949,-5.0024,-5.0051,-4.9718,-4.9719,-4.9719,0,-4.8949,-4.9071,-4.9047,-4.9143,-4.9183,-4.912,-4.9232,-4.9264,-4.933,-4.9359,-4.9307,-4.9466,-4.9492,-4.9642,-4.9695,-4.9726,-4.9755,-4.9695,-4.9926,-4.9947,-4.9968,-5.0038,-5.0067,-4.9727,-4.9726,-4.9725,-4.9724,0,-4.9195,-4.9281,-4.9365,-4.943,-4.948,-4.9584,-4.9574,-4.9628,-4.9604,-4.9606,-4.973,-4.976,-4.9832,-4.9868,-4.9845,-5.0015,-4.9984,-4.993,-4.9835,-5.0006,-5.0072,-5.0099,-4.9738,-4.9735,-4.9733,-4.9731,0,0,-4.9466,-4.9517,-4.9547,-4.9575,-4.9622,-4.9688,-4.979,-4.9861,-4.9906,-4.9956,-5.0038,-5.0149,-5.0099,-5.0138,-5.0119,-5.0192,-5.0358,-5.0128,-5.0129,-5.0167,-5.0545,-5.0583,-5.0615,-5.033,-5.0335,-5.0339,-5.054,0,-4.9666,-4.984,-4.9821,-4.9987,-5.0065,-5.0008,-5.0096,-5.0134,-5.014,-5.0208,-5.0214,-5.0292,-5.0221,-5.0244,-5.0314,-5.0323,-5.0433,-5.0309,-5.0405,-5.0408,-5.0391,-5.065,-5.069,-5.0878,-5.0566,-5.057,-5.0574,0,-4.9921,-4.9978,-5.0152,-5.0186,-5.0218,-5.0297,-5.036,-5.0427,-5.0469,-5.0468,-5.0513,-5.0481,-5.0582,-5.0489,-5.0627,-5.0543,-5.0582,-5.0593,-5.06,-5.0604,-5.0498,-5.0658,-5.0938,-5.0965,-5.0614,-5.0611,-5.0608,0,-5.0098,-5.0218,-5.0337,-5.0364,-5.0407,-5.0464,-5.0485,-5.0521,-5.0566,-5.0622,-5.065,-5.0718,-5.0755,-5.0808,-5.0796,-5.0729,-5.0937,-5.0843,-5.0937,-5.0938,-5.098,-5.0977,-5.1267,-5.1012,-5.1012,-5.1011,-5.1011,0,-5.032,-5.0428,-5.0416,-5.0489,-5.0608,-5.0586,-5.0705,-5.0719,-5.0752,-5.0827,-5.0783,-5.0854,-5.0835,-5.0906,-5.0898,-5.1012,-5.103,-5.1031,-5.1027,-5.1033,-5.1032,-5.1055,-5.104,-5.1019,-5.1017,-5.1016,-5.1014,0,-5.0535,-5.0533,-5.0658,-5.0689,-5.07,-5.0786,-5.0812,-5.0881,-5.0884,-5.0979,-5.1,-5.1005,-5.1085,-5.108,-5.1171,-5.1165,-5.1306,-5.1288,-5.1291,-5.1286,-5.138,-5.137,-5.1691,-5.1731,-5.1454,-5.1457,-5.1459,0,-5.0676,-5.0757,-5.0797,-5.0844,-5.0868,-5.0944,-5.0988,-5.0971,-5.1019,-5.1074,-5.1136,-5.1213,-5.1272,-5.1404,-5.1416,-5.1485,-5.1467,-5.1575,-5.1477,-5.148,-5.1464,-5.1458,-5.1465,-5.1593,-5.1596,-5.1598,-5.1601,0,-5.0924,-5.0919,-5.0984,-5.105,-5.1105,-5.1156,-5.1202,-5.1243,-5.1231,-5.1287,-5.1369,-5.1415,-5.1508,-5.1584,-5.1651,-5.1672,-5.1634,-5.1632,-5.1657,-5.1662,-5.1659,-5.1658,-5.134,-5.1624,-5.1621,-5.162,-5.1618,-5.1617,-5.1104,-5.1173,-5.1211,-5.1286,-5.1319,-5.1364,-5.1429,-5.1441,-5.1509,-5.1582,-5.1569,-5.166,-5.1701,-5.1786,-5.1814,-5.1885,-5.1846,-5.1883,-5.1892,-5.1901,-5.191,-5.1651,-5.1898,-5.1897,-5.1897,-5.1896,-5.1896,0,-5.1347,-5.1369,-5.1438,-5.1504,-5.1563,-5.1524,-5.1573,-5.1625,-5.1705,-5.1747,-5.1807,-5.19,-5.1974,-5.1993,-5.2064,-5.2117,-5.2102,-5.2136,-5.213,-5.2135,-5.1942,-5.1911,-5.2148,-5.2148,-5.2148,-5.2148,-5.2147,-5.2147,-5.148,-5.1593,-5.1593,-5.1723,-5.1745,-5.1833,-5.1865,-5.1906,-5.1938,-5.2044,-5.2105,-5.2117,-5.215,-5.2223,-5.2289,-5.2292,-5.2319,-5.236,-5.2357,-5.2175,-5.2149,-5.2125,-5.2096,-5.2367,-5.2367,-5.2544,-5.2545,-5.2546]},{"header":{"parameterUnit":"m.s-1","parameterCategory":1,"la1":30.2991,"la2":30.254,"lo1":-89.0895,"lo2":-89.0444,"dy":0.0017,"dx":0.0017,"nx":28,"ny":28,"refTime":"2024-06-19T09:00:00:Z","depth":0,"parameterNumber":3,"parameterNumberName":"V-component_of_WINDS"},"data":[0,0,0,0,0,0,0,0,0,0,0,0,0,0,0,0,0,0,0,0,0,0,0,0,0,0,0,0,0,0,0,0,0,0,0,0,0,0,0,0,0,0,0,0,0,0,0,0,0,0,0,0,0,0,0,0,0,0,1.2893,1.2892,0,1.2846,1.2845,1.2845,1.278,1.2779,1.2778,1.2777,1.2726,1.2726,1.2726,0,0,0,0,0,0,0,0,0,0,0,0,0,1.2925,1.2925,1.2893,1.2892,1.2892,1.2846,1.2845,1.2845,1.278,1.2779,1.2777,1.2776,1.2726,1.2726,1.2725,0,0,0,0,0,0,0,0,0,0,0,0,0,1.2898,1.2925,1.2893,1.2854,1.285,1.2846,1.2845,1.2844,1.278,1.2779,1.2777,1.2776,1.2726,1.2726,1.2725,1.2755,0,0,1.2724,1.2724,0,0,0,0,0,0,0,0,1.29,1.2897,1.286,1.2857,1.2852,1.2817,1.2838,1.2814,1.2781,1.2807,1.2777,1.2775,1.2758,1.2754,1.2749,1.2753,1.2751,1.2724,1.2724,1.2723,1.2723,0,0,0,0,0,0,0,1.2901,1.2898,1.2874,1.286,1.2855,1.2838,1.2833,1.2833,1.2792,1.2804,1.2799,1.2795,1.2755,1.275,1.2747,1.275,1.2724,1.2723,1.2723,1.2723,1.2776,1.2778,0,0,0,0,0,0,1.2909,1.29,1.2876,1.2873,1.2872,1.2839,1.2833,1.283,1.2792,1.2784,1.2796,1.2792,1.2751,1.2748,1.2745,1.2777,1.2723,1.2723,1.2723,1.2774,1.2776,1.2778,0,0,0,0,0,0,1.291,1.2908,1.2877,1.2885,1.288,1.284,1.2838,1.283,1.2824,1.2786,1.2778,1.2799,1.275,1.2746,1.2753,1.2775,1.2723,1.2722,1.2772,1.2775,1.2777,1.2842,0,0,0,0,0,0,1.2912,1.2909,1.292,1.2886,1.288,1.2887,1.2839,1.283,1.2824,1.2818,1.2786,1.2779,1.2748,1.2755,1.2753,1.2773,1.2722,1.277,1.2773,1.2776,1.2838,1.2846,1.2854,0,0,0,0,0,1.2913,1.2939,1.292,1.2918,1.2893,1.2888,1.2885,1.285,1.2826,1.2837,1.2812,1.278,1.2773,1.2756,1.2754,1.2774,1.2769,1.2772,1.2776,1.2834,1.2845,1.2854,0,0,0,0,0,0,1.2975,1.2934,1.2913,1.2929,1.2913,1.2877,1.2889,1.2862,1.2852,1.2846,1.2803,1.2796,1.2809,1.2792,1.2774,1.2801,1.2766,1.277,1.2811,1.2821,1.2829,1.2832,1.2721,0,0,0,0,0,1.2991,1.2991,1.2955,1.2973,1.2966,1.2929,1.2926,1.2901,1.2882,1.2874,1.285,1.2832,1.2826,1.2823,1.2815,1.2836,1.2827,1.2849,1.2857,1.2864,1.2867,1.2876,1.2885,1.2791,1.2791,1.2791,0,0,1.3023,1.3001,1.3003,1.2985,1.2969,1.2969,1.2924,1.2926,1.2926,1.2874,1.2879,1.2862,1.2839,1.2853,1.2858,1.284,1.2891,1.2869,1.2874,1.2873,1.2881,1.289,1.2898,1.2793,1.2793,1.2792,0,0,1.3081,1.3065,1.3078,1.3064,1.3041,1.3017,1.3021,1.299,1.2976,1.2981,1.2943,1.2942,1.2932,1.2918,1.2909,1.2964,1.2934,1.2963,1.3005,1.3015,1.3022,1.3028,1.3047,1.3055,1.2967,1.2967,1.2967,0,1.3124,1.3123,1.3088,1.3093,1.3086,1.3041,1.3053,1.3041,1.3017,1.3013,1.2993,1.2981,1.2962,1.2973,1.2987,1.2981,1.2983,1.2966,1.3024,1.303,1.3035,1.3053,1.306,1.297,1.297,1.297,1.2969,0,1.3176,1.3177,1.319,1.3169,1.3164,1.3172,1.3138,1.3137,1.3113,1.3091,1.3097,1.3074,1.3061,1.3062,1.3038,1.3069,1.3058,1.3032,1.2996,1.3049,1.3064,1.3071,1.2976,1.2974,1.2973,1.2972,0,0,1.327,1.3231,1.3236,1.3226,1.3199,1.3198,1.3206,1.3194,1.3194,1.3179,1.3183,1.3178,1.3154,1.3144,1.3118,1.3128,1.3172,1.31,1.3099,1.3113,1.3204,1.3223,1.3232,1.3153,1.3154,1.3155,1.3206,0,1.3322,1.3332,1.3301,1.3319,1.3319,1.3277,1.3283,1.3267,1.3248,1.3245,1.3223,1.3219,1.3188,1.3182,1.3189,1.3165,1.319,1.3161,1.3155,1.3156,1.3161,1.324,1.326,1.3308,1.3212,1.3213,1.3214,0,1.3384,1.3374,1.3392,1.3364,1.3363,1.3369,1.3356,1.3354,1.3335,1.332,1.3311,1.3282,1.3287,1.3254,1.3259,1.3241,1.3237,1.3225,1.3226,1.3223,1.3187,1.3237,1.3323,1.333,1.3223,1.3222,1.3222,0,1.3449,1.344,1.345,1.3443,1.3411,1.3417,1.3404,1.3383,1.3379,1.3368,1.3364,1.3354,1.3347,1.334,1.3309,1.3288,1.3318,1.3282,1.3305,1.3306,1.3311,1.3311,1.3396,1.3312,1.3311,1.3311,1.3311,0,1.3509,1.3522,1.3479,1.3485,1.3497,1.3462,1.3476,1.3459,1.3441,1.3443,1.3407,1.3409,1.3368,1.3366,1.3342,1.335,1.3347,1.3335,1.3328,1.3337,1.3339,1.3333,1.3328,1.3313,1.3313,1.3312,1.3312,0,1.3584,1.3556,1.3563,1.3534,1.3527,1.3537,1.3512,1.3516,1.3495,1.3497,1.3496,1.3462,1.3458,1.3427,1.3415,1.3398,1.3415,1.3402,1.3421,1.3417,1.344,1.3438,1.3523,1.3532,1.3444,1.3445,1.3445,0,1.3623,1.3632,1.3604,1.3603,1.3592,1.359,1.3586,1.3552,1.3549,1.3529,1.3535,1.3528,1.352,1.3515,1.3489,1.348,1.3466,1.3496,1.3464,1.3473,1.3465,1.3464,1.3464,1.3503,1.3504,1.3505,1.3505,0,1.3696,1.3682,1.3677,1.3668,1.3664,1.3655,1.3643,1.3644,1.3607,1.3605,1.36,1.3594,1.3583,1.3576,1.3563,1.3549,1.3521,1.3516,1.3521,1.3529,1.354,1.3533,1.3439,1.3514,1.3513,1.3512,1.3512,1.3512,1.3753,1.3759,1.3741,1.3737,1.3725,1.3715,1.3718,1.3698,1.3694,1.3682,1.3663,1.3661,1.3643,1.3622,1.3611,1.3609,1.3592,1.3599,1.36,1.3602,1.3607,1.3542,1.3606,1.3606,1.3606,1.3606,1.3605,0,1.3824,1.381,1.3807,1.3792,1.3789,1.3765,1.3751,1.375,1.3749,1.3735,1.3729,1.3724,1.3718,1.3692,1.3683,1.3686,1.3673,1.3685,1.3683,1.368,1.3622,1.3619,1.3696,1.3696,1.3696,1.3696,1.3696,1.3696,1.386,1.3868,1.3853,1.3855,1.3841,1.384,1.3834,1.3825,1.3814,1.381,1.3805,1.3789,1.377,1.376,1.3753,1.3746,1.3743,1.3759,1.3748,1.3693,1.3685,1.3676,1.3673,1.3759,1.3759,1.3805,1.3806,1.3806]}]]